Boonville, MO

11:58 AM CDT on September 27, 2016 (GMT -0500)
Viertel Memorial

Weather History for KVER - April, 2013

Change the Weather History Date:

Friday, April 19, 2013

  Actual Average Record
Temperature  
Mean Temperature 42 °F -  
Max Temperature 80 °F 68 °F 88 °F (1985)
Min Temperature 35 °F 46 °F 29 °F (1949)
Degree Days  
Heating Degree Days 22    
Moisture  
Dew Point 25 °F    
Average Humidity 52    
Maximum Humidity 69    
Minimum Humidity 32    
Precipitation  
Precipitation 0.00 in - - ()
Sea Level Pressure  
Sea Level Pressure 29.94 in    
Wind  
Wind Speed 13 mph (West)    
Max Wind Speed 21 mph    
Max Gust Speed 33 mph    
Visibility 10 miles    
Events      
Averages and records for this station are not official NWS values.
T = Trace of Precipitation, MM = Missing Value Source: NWS Daily Summary

Daily Weather History Graph

Daily Weather History Graph

Search for Another Location

Airport or City:

Trip Planner

Search our weather history database for the weather conditions in past years. The results will help you decide how hot, cold, wet, or windy it might be!

Date:

Astronomy

Apr. 19, 2013 Rise Set
Actual Time 6:28 AM CDT 7:52 PM CDT
Civil Twilight 6:00 AM CDT 8:19 PM CDT
Nautical Twilight 5:26 AM CDT 8:53 PM CDT
Astronomical Twilight 4:51 AM CDT 9:28 PM CDT
Moon 1:40 PM CDT (4/19) 2:40 AM CDT (4/19)
Length of Visible Light 14h 19m
Length of Day
13h 23m
First Quarter, 62% of the Moon is Illuminated
Apr 19
First Quarter
Apr 25
Full
May 2
Last Quarter
May 9
New
May 17
First Quarter

Hourly Weather History & Observations

Time (CDT) Temp. Windchill Dew Point Humidity Pressure Visibility Wind Dir Wind Speed Gust Speed Precip Events Conditions
12:15 AM 38.8 °F 29.4 °F 27.1 °F 63% 29.85 in 10.0 mi WNW 18.4 mph 25.3 mph N/A   Overcast
12:35 AM 38.7 °F 30.1 °F 27.3 °F 64% 29.85 in 10.0 mi West 15.0 mph 23.0 mph N/A   Overcast
12:55 AM 38.7 °F 30.5 °F 26.8 °F 62% 29.85 in 10.0 mi WNW 13.8 mph 20.7 mph N/A   Overcast
1:15 AM 38.5 °F 30.3 °F 26.2 °F 61% 29.85 in 10.0 mi West 13.8 mph 25.3 mph N/A   Overcast
1:35 AM 38.3 °F 31.4 °F 25.9 °F 61% 29.85 in 10.0 mi West 10.4 mph 21.9 mph N/A   Overcast
1:55 AM 38.3 °F 30.1 °F 26.1 °F 61% 29.85 in 10.0 mi West 13.8 mph 19.6 mph N/A   Overcast
2:15 AM 37.9 °F 28.9 °F 25.7 °F 61% 29.84 in 10.0 mi WNW 16.1 mph 21.9 mph N/A   Overcast
2:35 AM 37.8 °F 29.8 °F 25.3 °F 61% 29.85 in 10.0 mi West 12.7 mph 20.7 mph N/A   Overcast
2:55 AM 37.4 °F 28.9 °F 26.6 °F 65% 29.84 in 10.0 mi West 13.8 mph 19.6 mph N/A   Overcast
3:15 AM 37.2 °F 29.1 °F 27.5 °F 68% 29.85 in 10.0 mi West 12.7 mph 23.0 mph N/A   Overcast
3:35 AM 37.2 °F 28.3 °F 27.5 °F 68% 29.85 in 10.0 mi West 15.0 mph 21.9 mph N/A   Overcast
3:55 AM 36.9 °F 29.1 °F 27.3 °F 68% 29.85 in 10.0 mi West 11.5 mph 20.7 mph N/A   Overcast
4:15 AM 36.7 °F 28.0 °F 27.5 °F 69% 29.85 in 10.0 mi West 13.8 mph 20.7 mph N/A   Overcast
4:35 AM 36.5 °F 27.4 °F 27.1 °F 69% 29.85 in 10.0 mi West 15.0 mph 18.4 mph N/A   Overcast
4:55 AM 36.5 °F 27.8 °F 26.1 °F 66% 29.85 in 10.0 mi West 13.8 mph 26.5 mph N/A   Overcast
5:15 AM 36.1 °F 27.7 °F 25.9 °F 66% 29.86 in 10.0 mi West 12.7 mph 25.3 mph N/A   Overcast
5:35 AM 36.0 °F 26.3 °F 25.9 °F 67% 29.86 in 10.0 mi West 16.1 mph 27.6 mph N/A   Overcast
5:55 AM 36.0 °F - 25.7 °F 66% 29.86 in 10.0 mi Calm Calm - N/A   Overcast
6:15 AM 35.8 °F 28.3 °F 25.7 °F 67% 29.87 in 10.0 mi West 10.4 mph 18.4 mph N/A   Overcast
6:35 AM 35.8 °F 28.8 °F 25.7 °F 67% 29.88 in 10.0 mi West 9.2 mph 18.4 mph N/A   Overcast
6:55 AM 36.0 °F 27.5 °F 25.9 °F 67% 29.89 in 10.0 mi West 12.7 mph 21.9 mph N/A   Overcast
7:15 AM 36.1 °F 28.2 °F 26.1 °F 67% 29.89 in 10.0 mi West 11.5 mph 21.9 mph N/A   Overcast
7:35 AM 36.1 °F 28.2 °F 25.9 °F 66% 29.90 in 10.0 mi West 11.5 mph 20.7 mph N/A   Scattered Clouds
7:55 AM 36.7 °F 27.2 °F 26.1 °F 65% 29.90 in 10.0 mi WSW 16.1 mph 26.5 mph N/A   Clear
8:15 AM 37.4 °F 27.5 °F 25.9 °F 63% 29.91 in 10.0 mi West 18.4 mph 27.6 mph N/A   Mostly Cloudy
8:55 AM 38.1 °F 30.7 °F 26.2 °F 62% 29.91 in 10.0 mi West 11.5 mph 24.2 mph N/A   Scattered Clouds
9:15 AM 38.5 °F 28.9 °F 26.4 °F 62% 29.91 in 10.0 mi West 18.4 mph 26.5 mph N/A   Clear
9:35 AM 39.2 °F 29.6 °F 26.2 °F 60% 29.91 in 10.0 mi West 19.6 mph 25.3 mph N/A   Clear
9:55 AM 39.7 °F 31.5 °F 25.7 °F 57% 29.91 in 10.0 mi West 15.0 mph 24.2 mph N/A   Clear
10:15 AM 40.8 °F 34.1 °F 26.4 °F 57% 29.91 in 10.0 mi West 11.5 mph 23.0 mph N/A   Clear
10:35 AM 41.7 °F 33.7 °F 26.1 °F 54% 29.92 in 10.0 mi WNW 16.1 mph 23.0 mph N/A   Clear
10:55 AM 42.3 °F 34.1 °F 25.5 °F 52% 29.93 in 10.0 mi West 17.3 mph 24.2 mph N/A   Clear
11:15 AM 42.8 °F 34.5 °F 25.3 °F 50% 29.93 in 10.0 mi West 18.4 mph 25.3 mph N/A   Scattered Clouds
11:35 AM 43.7 °F 38.1 °F 25.9 °F 50% 29.93 in 10.0 mi West 10.4 mph 21.9 mph N/A   Scattered Clouds
11:55 AM 44.4 °F 36.9 °F 25.0 °F 46% 29.94 in 10.0 mi West 17.3 mph 25.3 mph N/A   Scattered Clouds
12:15 PM 45.1 °F 38.4 °F 25.0 °F 45% 29.94 in 10.0 mi West 15.0 mph 24.2 mph N/A   Scattered Clouds
12:35 PM 45.7 °F 38.0 °F 25.3 °F 45% 29.94 in 10.0 mi WSW 19.6 mph 26.5 mph N/A   Scattered Clouds
12:55 PM 46.0 °F 41.0 °F 25.0 °F 44% 29.94 in 10.0 mi West 10.4 mph 26.5 mph N/A   Scattered Clouds
1:15 PM 46.8 °F - 24.8 °F 42% 29.93 in 10.0 mi WNW 13.8 mph 32.2 mph N/A   Scattered Clouds
1:35 PM 47.3 °F - 24.1 °F 40% 29.93 in 10.0 mi West 16.1 mph 24.2 mph N/A   Mostly Cloudy
1:55 PM 47.8 °F - 23.5 °F 39% 29.93 in 10.0 mi WNW 16.1 mph 23.0 mph N/A   Scattered Clouds
2:15 PM 48.2 °F - 23.4 °F 38% 29.94 in 10.0 mi West 20.7 mph 27.6 mph N/A   Scattered Clouds
2:35 PM 48.6 °F - 22.3 °F 36% 29.94 in 10.0 mi WNW 16.1 mph 29.9 mph N/A   Scattered Clouds
2:55 PM 49.1 °F - 21.6 °F 34% 29.94 in 10.0 mi WNW 16.1 mph 33.4 mph N/A   Scattered Clouds
3:15 PM 49.3 °F - 21.0 °F 33% 29.94 in 10.0 mi West 16.1 mph 25.3 mph N/A   Scattered Clouds
3:35 PM 50.2 °F - 21.0 °F 32% 29.94 in 10.0 mi West 17.3 mph 32.2 mph N/A   Mostly Cloudy
3:55 PM 49.6 °F - 20.7 °F 32% 29.95 in 10.0 mi West 17.3 mph 27.6 mph N/A   Overcast
4:15 PM 49.6 °F - 21.4 °F 33% 29.96 in 10.0 mi WNW 16.1 mph 26.5 mph N/A   Overcast
4:35 PM 49.1 °F - 21.6 °F 34% 29.96 in 10.0 mi West 11.5 mph 21.9 mph N/A   Overcast
4:55 PM 49.3 °F - 22.8 °F 35% 29.97 in 10.0 mi West 15.0 mph 20.7 mph N/A   Overcast
5:15 PM 49.5 °F - 22.1 °F 34% 29.98 in 10.0 mi WNW 16.1 mph 24.2 mph N/A   Overcast
5:35 PM 49.3 °F - 20.5 °F 32% 29.98 in 10.0 mi West 12.7 mph 24.2 mph N/A   Overcast
5:55 PM 49.3 °F - 21.6 °F 34% 29.99 in 10.0 mi WNW 11.5 mph 21.9 mph N/A   Overcast
6:15 PM 48.9 °F - 21.9 °F 35% 30.00 in 10.0 mi WNW 12.7 mph 21.9 mph N/A   Overcast
6:35 PM 48.6 °F - 22.1 °F 35% 30.00 in 10.0 mi West 9.2 mph 19.6 mph N/A   Overcast
6:55 PM 48.6 °F - 22.1 °F 35% 30.00 in 10.0 mi West 10.4 mph 19.6 mph N/A   Overcast
7:15 PM 48.2 °F - 22.8 °F 37% 30.01 in 10.0 mi WNW 10.4 mph 16.1 mph N/A   Overcast
7:35 PM 47.8 °F - 23.4 °F 38% 30.01 in 10.0 mi WNW 5.8 mph - N/A   Overcast
7:55 PM 47.1 °F - 25.3 °F 43% 30.02 in 10.0 mi WNW 5.8 mph - N/A   Overcast
8:15 PM 46.4 °F 44.3 °F 25.7 °F 44% 30.02 in 10.0 mi West 4.6 mph - N/A   Overcast
8:35 PM 45.9 °F 44.6 °F 25.9 °F 46% 30.03 in 10.0 mi West 3.5 mph - N/A   Mostly Cloudy
8:55 PM 45.3 °F 44.0 °F 26.1 °F 47% 30.04 in 10.0 mi West 3.5 mph - N/A   Scattered Clouds
9:15 PM 44.8 °F 43.3 °F 26.6 °F 49% 30.05 in 10.0 mi West 3.5 mph - N/A   Clear
9:35 PM 44.1 °F 42.5 °F 26.8 °F 51% 30.05 in 10.0 mi WNW 3.5 mph - N/A   Clear
9:55 PM 43.7 °F 41.1 °F 26.6 °F 51% 30.06 in 10.0 mi WNW 4.6 mph - N/A   Clear
10:15 PM 43.3 °F 41.7 °F 26.6 °F 52% 30.07 in 10.0 mi WNW 3.5 mph - N/A   Clear
10:35 PM 43.0 °F 41.3 °F 26.4 °F 52% 30.07 in 10.0 mi West 3.5 mph - N/A   Clear
10:55 PM 42.4 °F 39.6 °F 26.1 °F 52% 30.08 in 10.0 mi WNW 4.6 mph - N/A   Clear
11:15 PM 41.2 °F 37.3 °F 26.2 °F 55% 30.08 in 10.0 mi WNW 5.8 mph - N/A   Clear
11:35 PM 41.5 °F 38.6 °F 25.5 °F 53% 30.08 in 10.0 mi WNW 4.6 mph - N/A   Clear
11:55 PM 41.0 °F 37.1 °F 25.2 °F 53% 30.09 in 10.0 mi NW 5.8 mph - N/A   Clear